Location: Marcé
(47.5801°N, 0.3280°W)
Time: 22:29:07
(UTC+01:00)

Transit 2A - Pass Details

Date: 03 December 2021
Orbit: 591 x 967 km, 66.7° (Epoch: 16 January)

Event Time Altitude Azimuth Distance (km) Brightness Sun altitude
Rises 01:52:55 0° 220° (SW) 3,306 - -61.7°
Reaches altitude 10° 01:55:15 10° 223° (SW) 2,433 - -61.4°
Maximum altitude 02:00:56 71° 307° (NW) 940 - -60.9°
Drops below altitude 10° 02:07:09 10° 32° (NNE) 2,661 - -60.3°
Sets 02:09:48 0° 35° (NE) 3,637 - -60.0°
